K6OUA-11 Weather Reports


time (UTC)temp
C
wind
direction
speed
KPH
gust
KPH
rain 1hr
cm
rain 24hr
cm
rain mn
cm
humidity
%
barometer
mb
20260510230404 24 261 14.5 16.1 0.00 0.00 0.00 51
20260510230201 24 272 14.5 16.1 0.00 0.00 0.00 51
20260510225957 25 282 11.3 16.1 0.00 0.00 0.00 50
20260510225757 24 271 14.5 17.7 0.00 0.00 0.00 50
20260510225553 24 254 12.9 17.7 0.00 0.00 0.00 51
20260510225351 24 284 4.8 17.7 0.00 0.00 0.00 51
20260510225150 23 258 16.1 20.9 0.00 0.00 0.00 51
20260510224347 24 251 14.5 17.7 0.00 0.00 0.00 51
20260510224142 24 282 11.3 20.9 0.00 0.00 0.00 52
20260510223940 24 243 11.3 20.9 0.00 0.00 0.00 51
20260510223333 24 267 16.1 20.9 0.00 0.00 0.00 52
20260510223132 24 267 8.0 22.5 0.00 0.00 0.00 53
20260510222929 23 272 11.3 22.5 0.00 0.00 0.00 53
20260510222728 23 261 16.1 22.5 0.00 0.00 0.00 53
20260510222124 24 284 19.3 20.9 0.00 0.00 0.00 53
20260510221920 23 253 14.5 20.9 0.00 0.00 0.00 54
20260510221718 23 250 12.9 22.5 0.00 0.00 0.00 53
20260510221314 24 271 11.3 20.9 0.00 0.00 0.00 54
20260510221112 23 250 8.0 20.9 0.00 0.00 0.00 54
20260510220908 23 267 22.5 20.9 0.00 0.00 0.00 54
20260510220707 23 270 14.5 24.1 0.00 0.00 0.00 55
20260510220506 23 277 16.1 24.1 0.00 0.00 0.00 54
20260510220305 24 244 17.7 20.9 0.00 0.00 0.00 54
20260510215658 23 261 19.3 19.3 0.00 0.00 0.00 55
20260510215255 23 267 11.3 22.5 0.00 0.00 0.00 55
20260510215053 23 261 12.9 22.5 0.00 0.00 0.00 55
20260510214648 23 260 14.5 20.9 0.00 0.00 0.00 56
20260510214446 23 262 17.7 20.9 0.00 0.00 0.00 56
20260510214042 23 268 11.3 22.5 0.00 0.00 0.00 56
20260510213841 23 244 9.7 22.5 0.00 0.00 0.00 56
20260510213437 23 277 12.9 20.9 0.00 0.00 0.00 56
20260510213235 23 264 20.9 22.5 0.00 0.00 0.00 56
20260510213032 23 268 12.9 22.5 0.00 0.00 0.00 56
20260510212829 23 274 11.3 22.5 0.00 0.00 0.00 56
20260510212627 23 260 11.3 22.5 0.00 0.00 0.00 56
20260510212426 23 284 12.9 22.5 0.00 0.00 0.00 57
20260510212223 23 250 14.5 20.9 0.00 0.00 0.00 57
20260510211822 23 265 12.9 20.9 0.00 0.00 0.00 55
20260510211619 23 250 12.9 20.9 0.00 0.00 0.00 56
20260510211417 23 261 14.5 20.9 0.00 0.00 0.00 56
20260510211216 23 281 9.7 20.9 0.00 0.00 0.00 57
20260510211013 23 257 12.9 20.9 0.00 0.00 0.00 56
20260510210811 23 258 19.3 19.3 0.00 0.00 0.00 55
20260510210408 23 285 19.3 19.3 0.00 0.00 0.00 54
20260510210206 23 265 14.5 22.5 0.00 0.00 0.00 56
20260510210004 23 254 14.5 22.5 0.00 0.00 0.00 56
20260510205802 23 267 11.3 20.9 0.00 0.00 0.00 56
20260510205600 23 270 12.9 20.9 0.00 0.00 0.00 55
20260510205357 23 258 16.1 20.9 0.00 0.00 0.00 55
20260510205156 23 268 16.1 19.3 0.00 0.00 0.00 56
20260510204952 23 278 12.9 19.3 0.00 0.00 0.00 56
20260510204752 23 247 17.7 22.5 0.00 0.00 0.00 54
20260510204550 23 261 9.7 22.5 0.00 0.00 0.00 55
20260510204348 23 279 19.3 22.5 0.00 0.00 0.00 55
20260510203945 23 248 8.0 20.9 0.00 0.00 0.00 57
20260510203742 23 270 9.7 22.5 0.00 0.00 0.00 56
20260510203540 22 151 6.4 22.5 0.00 0.00 0.00 56
20260510203137 22 275 14.5 20.9 0.00 0.00 0.00 57
20260510202933 23 289 3.2 20.9 0.00 0.00 0.00 57
20260510202125 22 261 17.7 24.1 0.00 0.00 0.00 58
20260510201722 22 264 16.1 22.5 0.00 0.00 0.00 57
20260510201520 22 254 12.9 22.5 0.00 0.00 0.00 59
20260510201318 22 255 14.5 22.5 0.00 0.00 0.00 59
20260510201116 22 264 11.3 22.5 0.00 0.00 0.00 59
20260510200914 23 247 22.5 22.5 0.00 0.00 0.00 57
20260510200713 23 254 14.5 24.1 0.00 0.00 0.00 58
20260510200511 22 278 12.9 24.1 0.00 0.00 0.00 57
20260510200107 23 272 16.1 22.5 0.00 0.00 0.00 57
20260510195904 23 279 12.9 22.5 0.00 0.00 0.00 59
20260510195501 23 255 14.5 22.5 0.00 0.00 0.00 58
20260510195057 22 247 9.7 27.4 0.00 0.00 0.00 60
20260510194855 22 272 16.1 27.4 0.00 0.00 0.00 59
20260510194651 23 261 17.7 24.1 0.00 0.00 0.00 58
20260510194451 22 291 12.9 24.1 0.00 0.00 0.00 59
20260510194047 22 260 17.7 20.9 0.00 0.00 0.00 57
20260510193846 22 278 14.5 20.9 0.00 0.00 0.00 58
20260510193240 22 220 6.4 25.7 0.00 0.00 0.00 60
20260510192634 22 285 16.1 27.4 0.00 0.00 0.00 60
20260510192432 22 268 14.5 27.4 0.00 0.00 0.00 61
20260510192228 22 248 16.1 24.1 0.00 0.00 0.00 61
20260510192026 22 262 12.9 24.1 0.00 0.00 0.00 61
20260510191826 22 264 20.9 24.1 0.00 0.00 0.00 61
20260510191624 22 255 16.1 20.9 0.00 0.00 0.00 60
20260510191422 22 267 17.7 20.9 0.00 0.00 0.00 59
20260510191218 22 274 14.5 22.5 0.00 0.00 0.00 58
20260510191018 23 251 14.5 22.5 0.00 0.00 0.00 59
20260510190814 22 243 12.9 22.5 0.00 0.00 0.00 58
20260510190613 23 243 11.3 22.5 0.00 0.00 0.00 58
20260510190412 22 274 11.3 22.5 0.00 0.00 0.00 60
20260510190210 22 260 16.1 19.3 0.00 0.00 0.00 60
20260510190007 22 272 9.7 19.3 0.00 0.00 0.00 59
20260510185806 22 247 12.9 24.1 0.00 0.00 0.00 60
20260510185604 22 264 17.7 24.1 0.00 0.00 0.00 60
20260510185403 22 267 11.3 24.1 0.00 0.00 0.00 61
20260510185159 22 257 12.9 22.5 0.00 0.00 0.00 61
20260510184957 22 260 14.5 22.5 0.00 0.00 0.00 61
20260510184756 22 265 17.7 19.3 0.00 0.00 0.00 61
20260510184555 22 274 12.9 19.3 0.00 0.00 0.00 61
20260510183949 22 278 12.9 20.9 0.00 0.00 0.00 61
20260510183141 22 277 9.7 20.9 0.00 0.00 0.00 61
20260510182939 22 272 12.9 20.9 0.00 0.00 0.00 61
20260510182737 21 282 16.1 19.3 0.00 0.00 0.00 62
20260510182535 21 299 6.4 19.3 0.00 0.00 0.00 61
20260510182333 21 274 14.5 19.3 0.00 0.00 0.00 62
20260510182131 21 275 11.3 17.7 0.00 0.00 0.00 62
20260510181929 21 268 12.9 17.7 0.00 0.00 0.00 62
20260510181727 21 271 8.0 17.7 0.00 0.00 0.00 63
20260510181525 21 268 8.0 17.7 0.00 0.00 0.00 62
20260510181323 21 279 11.3 17.7 0.00 0.00 0.00 63
20260510181121 21 264 12.9 19.3 0.00 0.00 0.00 64
20260510180717 21 282 11.3 17.7 0.00 0.00 0.00 64
20260510180516 21 281 12.9 17.7 0.00 0.00 0.00 64
20260510180314 21 267 16.1 19.3 0.00 0.00 0.00 64
20260510175910 20 291 12.9 19.3 0.00 0.00 0.00 65
20260510175707 20 277 14.5 16.1 0.00 0.00 0.00 64
20260510175506 20 275 9.7 16.1 0.00 0.00 0.00 64
20260510175306 21 286 9.7 16.1 0.00 0.00 0.00 64
20260510175101 21 272 11.3 16.1 0.00 0.00 0.00 64
20260510174900 21 262 11.3 16.1 0.00 0.00 0.00 65
20260510174656 21 267 11.3 14.5 0.00 0.00 0.00 64
20260510174456 20 274 12.9 14.5 0.00 0.00 0.00 64
20260510174254 21 272 11.3 14.5 0.00 0.00 0.00 64
20260510173647 20 281 12.9 14.5 0.00 0.00 0.00 67
20260510173446 20 255 6.4 14.5 0.00 0.00 0.00 68
20260510173245 20 292 6.4 14.5 0.00 0.00 0.00 70
20260510173046 19 278 12.9 14.5 0.00 0.00 0.00 69
20260510172840 19 281 8.0 14.5 0.00 0.00 0.00 69
20260510172639 20 295 8.0 16.1 0.00 0.00 0.00 69
20260510172437 20 277 11.3 16.1 0.00 0.00 0.00 71
20260510172235 19 278 12.9 14.5 0.00 0.00 0.00 71
20260510172033 19 303 8.0 14.5 0.00 0.00 0.00 71
20260510171831 18 296 9.7 14.5 0.00 0.00 0.00 73
20260510171629 19 278 9.7 14.5 0.00 0.00 0.00 72
20260510171428 18 271 9.7 14.5 0.00 0.00 0.00 72
20260510171225 18 281 9.7 12.9 0.00 0.00 0.00 72
20260510171023 18 316 6.4 12.9 0.00 0.00 0.00 74
20260510170620 18 305 9.7 14.5 0.00 0.00 0.00 74
20260510170420 18 254 0.0 14.5 0.00 0.00 0.00 78
20260510170216 18 286 9.7 11.3 0.00 0.00 0.00 76
20260510170013 18 293 11.3 11.3 0.00 0.00 0.00 76
20260510165810 18 261 3.2 11.3 0.00 0.00 0.00 80
20260510165408 17 313 6.4 11.3 0.00 0.00 0.00 80
20260510165206 17 291 8.0 12.9 0.00 0.00 0.00 82
20260510165004 17 292 6.4 12.9 0.00 0.00 0.00 83
20260510164803 17 319 3.2 8.0 0.00 0.00 0.00 82
20260510164601 17 272 6.4 8.0 0.00 0.00 0.00 86
20260510164359 16 233 3.2 8.0 0.00 0.00 0.00 88
20260510164159 16 281 4.8 8.0 0.00 0.00 0.00 89
20260510163953 16 305 4.8 8.0 0.00 0.00 0.00 90
20260510163751 15 284 1.6 9.7 0.00 0.00 0.00 92
20260510163348 15 291 6.4 9.7 0.00 0.00 0.00 92
20260510162743 15 293 4.8 11.3 0.00 0.00 0.00 95
20260510162542 15 255 8.0 11.3 0.00 0.00 0.00 96
20260510162340 14 257 1.6 11.3 0.00 0.00 0.00 96
20260510162138 14 261 3.2 9.7 0.00 0.00 0.00 96
20260510161936 14 293 9.7 9.7 0.00 0.00 0.00 97
20260510161733 14 292 8.0 8.0 0.00 0.00 0.00 97
20260510161330 13 219 1.6 8.0 0.00 0.00 0.00 97
20260510161128 13 291 8.0 9.7 0.00 0.00 0.00 97
20260510160926 13 250 0.0 9.7 0.00 0.00 0.00 97
20260510160724 13 210 0.0 8.0 0.00 0.00 0.00 97
20260510160523 13 237 0.0 8.0 0.00 0.00 0.00 97
20260510160119 13 289 3.2 9.7 0.00 0.00 0.00 97
20260510155917 13 293 4.8 9.7 0.00 0.00 0.00 97
20260510155715 13 326 0.0 8.0 0.00 0.00 0.00 97
20260510155513 12 275 3.2 8.0 0.00 0.00 0.00 97
20260510155311 12 277 8.0 6.4 0.00 0.00 0.00 97
20260510155108 12 288 4.8 6.4 0.00 0.00 0.00 97
20260510154907 12 272 3.2 6.4 0.00 0.00 0.00 97
20260510154705 12 310 3.2 6.4 0.00 0.00 0.00 97
20260510154503 12 239 0.0 6.4 0.00 0.00 0.00 97
20260510154303 12 270 1.6 4.8 0.00 0.00 0.00 97
20260510154100 12 288 4.8 4.8 0.00 0.00 0.00 97
20260510153858 12 274 4.8 4.8 0.00 0.00 0.00 97
20260510153655 12 255 0.0 6.4 0.00 0.00 0.00 97
20260510153454 12 279 0.0 6.4 0.00 0.00 0.00 97
20260510153050 12 267 0.0 8.0 0.00 0.00 0.00 97
20260510152848 11 296 4.8 8.0 0.00 0.00 0.00 97
20260510152646 11 293 1.6 6.4 0.00 0.00 0.00 97
20260510152242 11 275 4.8 8.0 0.00 0.00 0.00 97
20260510152041 11 264 3.2 8.0 0.00 0.00 0.00 97
20260510151839 11 279 3.2 8.0 0.00 0.00 0.00 97
20260510151637 11 247 0.0 4.8 0.00 0.00 0.00 97
20260510151435 11 274 1.6 4.8 0.00 0.00 0.00 97
20260510151233 11 289 0.0 6.4 0.00 0.00 0.00 97
20260510151031 11 289 0.0 6.4 0.00 0.00 0.00 97
20260510150829 11 284 3.2 6.4 0.00 0.00 0.00 97
20260510150627 11 285 4.8 4.8 0.00 0.00 0.00 97
20260510150425 11 267 0.0 4.8 0.00 0.00 0.00 97
20260510150022 11 288 0.0 4.8 0.00 0.00 0.00 97
20260510145820 11 291 3.2 4.8 0.00 0.00 0.00 97
20260510145618 11 293 3.2 8.0 0.00 0.00 0.00 97
20260510145416 11 296 1.6 8.0 0.00 0.00 0.00 97
20260510145214 11 284 6.4 0.0 0.00 0.00 0.00 97
20260510145012 11 300 3.2 0.0 0.00 0.00 0.00 97
20260510144810 11 291 0.0 6.4 0.00 0.00 0.00 97
20260510144609 11 291 0.0 6.4 0.00 0.00 0.00 97
20260510144407 11 291 0.0 6.4 0.00 0.00 0.00 97
20260510144205 11 281 0.0 6.4 0.00 0.00 0.00 97
20260510143801 11 292 4.8 8.0 0.00 0.00 0.00 97
20260510143559 11 286 0.0 8.0 0.00 0.00 0.00 97
20260510143357 11 288 1.6 8.0 0.00 0.00 0.00 97
20260510143155 11 293 4.8 8.0 0.00 0.00 0.00 97
20260510142953 11 305 4.8 8.0 0.00 0.00 0.00 97
20260510142750 11 298 4.8 6.4 0.00 0.00 0.00 97
20260510142549 11 251 0.0 6.4 0.00 0.00 0.00 97
20260510142348 11 305 1.6 6.4 0.00 0.00 0.00 97
20260510142144 11 298 3.2 0.0 0.00 0.00 0.00 97
20260510141740 11 264 0.0 0.0 0.00 0.00 0.00 97
20260510141539 11 264 0.0 0.0 0.00 0.00 0.00 97
20260510140530 11 264 0.0 0.0 0.00 0.00 0.00 97
20260510140328 11 264 0.0 0.0 0.00 0.00 0.00 97
20260510140127 11 264 0.0 0.0 0.00 0.00 0.00 97
20260510135924 11 264 0.0 0.0 0.00 0.00 0.00 97
20260510135722 11 264 0.0 0.0 0.00 0.00 0.00 97
20260510135521 11 264 0.0 0.0 0.00 0.00 0.00 97
20260510135319 11 264 0.0 0.0 0.00 0.00 0.00 97
20260510135117 11 264 0.0 0.0 0.00 0.00 0.00 97
20260510134915 11 264 0.0 0.0 0.00 0.00 0.00 97
20260510134713 11 264 0.0 0.0 0.00 0.00 0.00 97
20260510134511 11 264 0.0 0.0 0.00 0.00 0.00 97
20260510134309 11 264 0.0 0.0 0.00 0.00 0.00 97
20260510134107 11 264 0.0 0.0 0.00 0.00 0.00 97
20260510133905 11 264 0.0 0.0 0.00 0.00 0.00 97
20260510133704 11 264 0.0 0.0 0.00 0.00 0.00 97
20260510133058 11 264 0.0 0.0 0.00 0.00 0.00 97
20260510132855 11 264 0.0 0.0 0.00 0.00 0.00 97
20260510132452 11 264 0.0 0.0 0.00 0.00 0.00 97
20260510132250 11 264 0.0 0.0 0.00 0.00 0.00 97
20260510132048 11 264 0.0 0.0 0.00 0.00 0.00 97
20260510131644 11 264 0.0 0.0 0.00 0.00 0.00 97
20260510131443 11 264 0.0 0.0 0.00 0.00 0.00 97
20260510131241 11 264 0.0 0.0 0.00 0.00 0.00 97
20260510130635 11 264 0.0 0.0 0.00 0.00 0.00 97
20260510130433 11 264 0.0 0.0 0.00 0.00 0.00 97
20260510130231 11 264 0.0 0.0 0.00 0.00 0.00 97
20260510130029 11 264 0.0 0.0 0.00 0.00 0.00 97
20260510125827 11 264 0.0 0.0 0.00 0.00 0.00 97
20260510125626 11 264 0.0 0.0 0.00 0.00 0.00 97
20260510125222 11 264 0.0 0.0 0.00 0.00 0.00 97
20260510124816 11 264 0.0 0.0 0.00 0.00 0.00 97
20260510124616 11 264 0.0 0.0 0.00 0.00 0.00 97
20260510124414 11 264 0.0 0.0 0.00 0.00 0.00 97
20260510124212 11 264 0.0 0.0 0.00 0.00 0.00 97
20260510124010 11 264 0.0 0.0 0.00 0.00 0.00 97
20260510123808 11 264 0.0 0.0 0.00 0.00 0.00 97
20260510123405 11 264 0.0 0.0 0.00 0.00 0.00 97
20260510123202 11 264 0.0 0.0 0.00 0.00 0.00 97
20260510122759 11 264 0.0 0.0 0.00 0.00 0.00 97
20260510122557 11 264 0.0 0.0 0.00 0.00 0.00 97
20260510122153 11 264 0.0 0.0 0.00 0.00 0.00 97
20260510121951 11 264 0.0 0.0 0.00 0.00 0.00 97
20260510121751 11 264 0.0 0.0 0.00 0.00 0.00 97
20260510121548 11 264 0.0 0.0 0.00 0.00 0.00 97
20260510121345 11 264 0.0 0.0 0.00 0.00 0.00 97
20260510121144 11 264 0.0 0.0 0.00 0.00 0.00 97
20260510120940 11 264 0.0 0.0 0.00 0.00 0.00 97
20260510120740 11 264 0.0 0.0 0.00 0.00 0.00 97
20260510120629 11 264 0.0 0.0 0.00 0.00 0.00 97
20260510120538 11 264 0.0 0.0 0.00 0.00 0.00 97
20260510120336 11 264 0.0 0.0 0.00 0.00 0.00 97
20260510120134 11 264 0.0 6.4 0.00 0.00 0.00 97
20260510115932 11 264 0.0 6.4 0.00 0.00 0.00 97
20260510115730 11 264 0.0 8.0 0.00 0.00 0.00 97
20260510115528 11 296 1.6 8.0 0.00 0.00 0.00 97
20260510115326 11 289 4.8 8.0 0.00 0.00 0.00 97
20260510115124 11 291 3.2 4.8 0.00 0.00 0.00 97
20260510114923 11 246 0.0 4.8 0.00 0.00 0.00 97
20260510114721 11 292 1.6 6.4 0.00 0.00 0.00 97
20260510114519 11 298 3.2 6.4 0.00 0.00 0.00 97
20260510114317 11 309 4.8 6.4 0.00 0.00 0.00 97
20260510114115 11 309 4.8 6.4 0.00 0.00 0.00 97
20260510113913 11 310 3.2 6.4 0.00 0.00 0.00 97
20260510113711 11 305 4.8 6.4 0.00 0.00 0.00 97
20260510113509 11 296 4.8 6.4 0.00 0.00 0.00 97
20260510113106 11 309 4.8 4.8 0.00 0.00 0.00 97
20260510112903 11 298 3.2 4.8 0.00 0.00 0.00 97
20260510112458 11 291 3.2 4.8 0.00 0.00 0.00 96
20260510112258 11 282 1.6 3.2 0.00 0.00 0.00 96
20260510111854 11 284 0.0 3.2 0.00 0.00 0.00 96
20260510111651 11 285 1.6 3.2 0.00 0.00 0.00 96
20260510111450 11 285 3.2 3.2 0.00 0.00 0.00 96
20260510111047 11 288 3.2 8.0 0.00 0.00 0.00 96
20260510110845 11 286 3.2 8.0 0.00 0.00 0.00 96
20260510110641 11 288 3.2 8.0 0.00 0.00 0.00 96
20260510110439 11 270 6.4 8.0 0.00 0.00 0.00 96
20260510110239 11 281 4.8 6.4 0.00 0.00 0.00 96
20260510110037 11 299 3.2 6.4 0.00 0.00 0.00 96
20260510105834 11 293 3.2 6.4 0.00 0.00 0.00 96
20260510105432 11 296 4.8 6.4 0.00 0.00 0.00 96
20260510104826 11 303 6.4 6.4 0.00 0.00 0.00 96
20260510104624 11 303 4.8 8.0 0.00 0.00 0.00 96
20260510104422 11 299 6.4 8.0 0.00 0.00 0.00 96
20260510104218 11 293 6.4 6.4 0.00 0.00 0.00 95
20260510104018 11 300 4.8 6.4 0.00 0.00 0.00 95
20260510103816 11 289 6.4 0.0 0.00 0.00 0.00 95
20260510103614 11 289 4.8 0.0 0.00 0.00 0.00 95
20260510103211 11 282 0.0 0.0 0.00 0.00 0.00 95
20260510103008 11 282 0.0 0.0 0.00 0.00 0.00 95
20260510102807 11 282 0.0 0.0 0.00 0.00 0.00 95
20260510102605 12 282 0.0 0.0 0.00 0.00 0.00 95
20260510102403 12 282 0.0 0.0 0.00 0.00 0.00 95
20260510102201 12 282 0.0 0.0 0.00 0.00 0.00 95
20260510101959 12 282 0.0 0.0 0.00 0.00 0.00 95
20260510101757 12 282 0.0 3.2 0.00 0.00 0.00 95
20260510101555 12 282 0.0 3.2 0.00 0.00 0.00 95
20260510101353 12 282 0.0 3.2 0.00 0.00 0.00 95
20260510101151 12 282 0.0 4.8 0.00 0.00 0.00 95
20260510100950 12 292 1.6 4.8 0.00 0.00 0.00 95
20260510100748 12 292 3.2 6.4 0.00 0.00 0.00 95
20260510100546 12 292 3.2 6.4 0.00 0.00 0.00 95
20260510100344 12 286 3.2 6.4 0.00 0.00 0.00 95
20260510100213 12 281 3.2 4.8 0.00 0.00 0.00 95
20260510100142 12 281 3.2 4.8 0.00 0.00 0.00 95
20260510095940 12 300 3.2 4.8 0.00 0.00 0.00 95
20260510095738 12 303 4.8 6.4 0.00 0.00 0.00 95
20260510095536 12 305 3.2 6.4 0.00 0.00 0.00 95
20260510095334 12 305 3.2 6.4 0.00 0.00 0.00 95
20260510095132 12 306 3.2 4.8 0.00 0.00 0.00 95
20260510094728 12 309 4.8 0.0 0.00 0.00 0.00 94
20260510094526 12 289 0.0 0.0 0.00 0.00 0.00 95
20260510094325 12 289 0.0 0.0 0.00 0.00 0.00 94
20260510093919 12 289 0.0 0.0 0.00 0.00 0.00 94
20260510093719 12 289 0.0 0.0 0.00 0.00 0.00 93
20260510093517 12 289 0.0 0.0 0.00 0.00 0.00 93
20260510093315 12 289 0.0 0.0 0.00 0.00 0.00 93
20260510093113 12 289 0.0 0.0 0.00 0.00 0.00 93
20260510092911 12 289 0.0 0.0 0.00 0.00 0.00 93
20260510092710 12 289 0.0 0.0 0.00 0.00 0.00 93
20260510092506 12 289 0.0 0.0 0.00 0.00 0.00 93
20260510092307 12 289 0.0 0.0 0.00 0.00 0.00 93
20260510092104 12 289 0.0 0.0 0.00 0.00 0.00 93
20260510091902 12 289 0.0 0.0 0.00 0.00 0.00 93
20260510091256 12 289 0.0 0.0 0.00 0.00 0.00 93
20260510091054 12 289 0.0 0.0 0.00 0.00 0.00 93
20260510090852 12 289 0.0 0.0 0.00 0.00 0.00 93
20260510090649 12 289 0.0 0.0 0.00 0.00 0.00 93
20260510090448 12 289 0.0 0.0 0.00 0.00 0.00 93
20260510090246 12 289 0.0 0.0 0.00 0.00 0.00 93
20260510090043 12 289 0.0 0.0 0.00 0.00 0.00 93
20260510085843 12 289 0.0 0.0 0.00 0.00 0.00 93
20260510085641 12 289 0.0 0.0 0.00 0.00 0.00 93
20260510085439 12 289 0.0 0.0 0.00 0.00 0.00 93
20260510085237 12 289 0.0 0.0 0.00 0.00 0.00 93
20260510085035 12 289 0.0 0.0 0.00 0.00 0.00 92
20260510084630 12 289 0.0 0.0 0.00 0.00 0.00 92
20260510084428 12 289 0.0 0.0 0.00 0.00 0.00 92
20260510084227 12 289 0.0 0.0 0.00 0.00 0.00 92
20260510084026 12 289 0.0 0.0 0.00 0.00 0.00 92
20260510083823 13 289 0.0 0.0 0.00 0.00 0.00 92
20260510083622 13 289 0.0 0.0 0.00 0.00 0.00 92
20260510083420 13 289 0.0 0.0 0.00 0.00 0.00 92
20260510083016 13 289 0.0 0.0 0.00 0.00 0.00 92
20260510082814 13 289 0.0 0.0 0.00 0.00 0.00 91
20260510082613 13 289 0.0 0.0 0.00 0.00 0.00 91
20260510082411 13 289 0.0 0.0 0.00 0.00 0.00 91
20260510082208 13 289 0.0 0.0 0.00 0.00 0.00 91
20260510082006 13 289 0.0 0.0 0.00 0.00 0.00 91
20260510081603 13 289 0.0 0.0 0.00 0.00 0.00 91
20260510081401 13 289 0.0 0.0 0.00 0.00 0.00 91
20260510081159 13 289 0.0 0.0 0.00 0.00 0.00 91
20260510080957 13 289 0.0 0.0 0.00 0.00 0.00 91
20260510080755 13 289 0.0 0.0 0.00 0.00 0.00 91
20260510080552 13 289 0.0 0.0 0.00 0.00 0.00 91
20260510080350 13 289 0.0 0.0 0.00 0.00 0.00 90
20260510080149 13 289 0.0 0.0 0.00 0.00 0.00 90
20260510075342 13 289 0.0 0.0 0.00 0.00 0.00 90
20260510075140 13 289 0.0 0.0 0.00 0.00 0.00 90
20260510074938 13 289 0.0 0.0 0.00 0.00 0.00 90
20260510074736 13 289 0.0 0.0 0.00 0.00 0.00 90
20260510074534 13 289 0.0 0.0 0.00 0.00 0.00 90
20260510074331 13 289 0.0 0.0 0.00 0.00 0.00 89
20260510074130 13 289 0.0 0.0 0.00 0.00 0.00 89
20260510073727 13 289 0.0 0.0 0.00 0.00 0.00 89
20260510073524 13 289 0.0 0.0 0.00 0.00 0.00 89
20260510073323 13 289 0.0 0.0 0.00 0.00 0.00 89
20260510073121 13 289 0.0 0.0 0.00 0.00 0.00 89
20260510072917 13 289 0.0 0.0 0.00 0.00 0.00 89
20260510072717 13 289 0.0 0.0 0.00 0.00 0.00 89
20260510072513 13 289 0.0 0.0 0.00 0.00 0.00 89
20260510072111 13 289 0.0 0.0 0.00 0.00 0.00 89
20260510071909 13 289 0.0 0.0 0.00 0.00 0.00 89
20260510071506 13 289 0.0 0.0 0.00 0.00 0.00 89
20260510071304 13 289 0.0 0.0 0.00 0.00 0.00 88
20260510071102 13 289 0.0 0.0 0.00 0.00 0.00 88
20260510070900 13 289 0.0 0.0 0.00 0.00 0.00 88
20260510070656 13 289 0.0 0.0 0.00 0.00 0.00 88
20260510070456 14 289 0.0 0.0 0.00 0.00 0.00 88
20260510070252 14 289 0.0 0.0 0.00 0.00 0.00 88
20260510070052 14 289 0.0 0.0 0.00 0.00 0.00 88
20260510065849 14 289 0.0 0.0 0.00 0.00 0.00 88
20260510065649 14 289 0.0 0.0 0.00 0.00 0.00 88
20260510065447 14 289 0.0 0.0 0.00 0.00 0.00 88
20260510065243 14 289 0.0 0.0 0.00 0.00 0.00 87
20260510065042 14 289 0.0 0.0 0.00 0.00 0.00 87
20260510064639 14 289 0.0 0.0 0.00 0.00 0.00 87
20260510064437 14 289 0.0 0.0 0.00 0.00 0.00 87
20260510064235 14 289 0.0 0.0 0.00 0.00 0.00 87
20260510064033 14 289 0.0 0.0 0.00 0.00 0.00 87
20260510063831 14 289 0.0 0.0 0.00 0.00 0.00 87
20260510063630 14 289 0.0 0.0 0.00 0.00 0.00 87
20260510063427 14 289 0.0 0.0 0.00 0.00 0.00 87
20260510063225 14 289 0.0 0.0 0.00 0.00 0.00 87
20260510063023 14 289 0.0 0.0 0.00 0.00 0.00 87
20260510062822 14 289 0.0 0.0 0.00 0.00 0.00 87
20260510062620 14 289 0.0 0.0 0.00 0.00 0.00 87
20260510062416 14 289 0.0 0.0 0.00 0.00 0.00 87
20260510062014 14 289 0.0 0.0 0.00 0.00 0.00 88
20260510061812 14 289 0.0 0.0 0.00 0.00 0.00 87
20260510061613 14 289 0.0 0.0 0.00 0.00 0.00 87
20260510061610 14 289 0.0 0.0 0.00 0.00 0.00 87
20260510061409 14 289 0.0 0.0 0.00 0.00 0.00 87
20260510061205 14 289 0.0 0.0 0.00 0.00 0.00 87
20260510061005 14 289 0.0 0.0 0.00 0.00 0.00 87
20260510060802 14 289 0.0 0.0 0.00 0.00 0.00 87
20260510060400 14 289 0.0 0.0 0.00 0.00 0.00 86
20260510060157 15 289 0.0 0.0 0.00 0.00 0.00 86
20260510055956 15 289 0.0 0.0 0.00 0.00 0.00 86
20260510055753 15 289 0.0 0.0 0.00 0.00 0.00 86
20260510055550 15 289 0.0 0.0 0.00 0.00 0.00 86
20260510054944 15 289 0.0 0.0 0.00 0.00 0.00 87
20260510054744 15 289 0.0 0.0 0.00 0.00 0.00 87
20260510054542 15 289 0.0 0.0 0.00 0.00 0.00 87
20260510054138 15 289 0.0 0.0 0.00 0.00 0.00 87
20260510053937 15 289 0.0 0.0 0.00 0.00 0.00 87
20260510053734 15 289 0.0 0.0 0.00 0.00 0.00 87
20260510053331 15 289 0.0 0.0 0.00 0.00 0.00 86
20260510053128 15 289 0.0 0.0 0.00 0.00 0.00 86
20260510052926 15 289 0.0 0.0 0.00 0.00 0.00 86
20260510052725 15 289 0.0 0.0 0.00 0.00 0.00 86
20260510052523 15 289 0.0 0.0 0.00 0.00 0.00 86
20260510052321 15 289 0.0 0.0 0.00 0.00 0.00 86
20260510052119 15 289 0.0 0.0 0.00 0.00 0.00 86
20260510051917 15 289 0.0 0.0 0.00 0.00 0.00 85
20260510051715 15 289 0.0 0.0 0.00 0.00 0.00 85
20260510051513 15 289 0.0 0.0 0.00 0.00 0.00 85
20260510051311 15 289 0.0 0.0 0.00 0.00 0.00 85
20260510051108 15 289 0.0 0.0 0.00 0.00 0.00 85
20260510050504 15 289 0.0 0.0 0.00 0.00 0.00 84
20260510050302 15 289 0.0 0.0 0.00 0.00 0.00 84
20260510050100 15 289 0.0 0.0 0.00 0.00 0.00 84
20260510045858 15 289 0.0 0.0 0.00 0.00 0.00 84
20260510045656 15 289 0.0 0.0 0.00 0.00 0.00 83
20260510045252 15 289 0.0 0.0 0.00 0.00 0.00 83
20260510045050 15 289 0.0 0.0 0.00 0.00 0.00 83
20260510044849 15 289 0.0 0.0 0.00 0.00 0.00 83
20260510044647 15 289 0.0 0.0 0.00 0.00 0.00 83
20260510044445 15 289 0.0 0.0 0.00 0.00 0.00 83
20260510044243 16 289 0.0 0.0 0.00 0.00 0.00 83
20260510043839 16 289 0.0 0.0 0.00 0.00 0.00 83
20260510043637 16 289 0.0 0.0 0.00 0.00 0.00 83
20260510043233 16 289 0.0 0.0 0.00 0.00 0.00 83
20260510043030 16 289 0.0 0.0 0.00 0.00 0.00 83
20260510042830 16 289 0.0 0.0 0.00 0.00 0.00 83
20260510042426 16 289 0.0 0.0 0.00 0.00 0.00 83
20260510042224 16 289 0.0 0.0 0.00 0.00 0.00 83
20260510042022 16 289 0.0 0.0 0.00 0.00 0.00 83
20260510041618 16 289 0.0 0.0 0.00 0.00 0.00 83
20260510041416 16 289 0.0 0.0 0.00 0.00 0.00 83
20260510041214 16 289 0.0 0.0 0.00 0.00 0.00 83
20260510041012 16 289 0.0 0.0 0.00 0.00 0.00 83
20260510040810 16 289 0.0 3.2 0.00 0.00 0.00 83
20260510040642 16 289 0.0 3.2 0.00 0.00 0.00 83
20260510040607 16 289 0.0 3.2 0.00 0.00 0.00 83
20260510040406 16 289 0.0 3.2 0.00 0.00 0.00 83
20260510040205 16 289 0.0 3.2 0.00 0.00 0.00 83
20260510035559 16 271 0.0 3.2 0.00 0.00 0.00 83
20260510035357 16 303 1.6 3.2 0.00 0.00 0.00 83
20260510035155 16 293 1.6 3.2 0.00 0.00 0.00 84
20260510034952 16 289 1.6 3.2 0.00 0.00 0.00 83
20260510034549 16 295 3.2 0.0 0.00 0.00 0.00 82
20260510034145 16 264 0.0 0.0 0.00 0.00 0.00 81
20260510033540 16 264 0.0 0.0 0.00 0.00 0.00 81
20260510033338 16 264 0.0 0.0 0.00 0.00 0.00 81
20260510033136 16 264 0.0 0.0 0.00 0.00 0.00 81
20260510032934 16 264 0.0 0.0 0.00 0.00 0.00 81
20260510032732 16 264 0.0 0.0 0.00 0.00 0.00 81
20260510032530 16 264 0.0 0.0 0.00 0.00 0.00 81
20260510032328 16 264 0.0 0.0 0.00 0.00 0.00 81
20260510032126 16 264 0.0 6.4 0.00 0.00 0.00 81
20260510031924 16 264 0.0 6.4 0.00 0.00 0.00 81
20260510031722 16 264 0.0 6.4 0.00 0.00 0.00 81
20260510031521 16 284 3.2 6.4 0.00 0.00 0.00 81
20260510031318 16 292 4.8 8.0 0.00 0.00 0.00 81
20260510031116 16 295 4.8 8.0 0.00 0.00 0.00 81
20260510030915 16 289 4.8 8.0 0.00 0.00 0.00 81
20260510030713 16 291 4.8 6.4 0.00 0.00 0.00 81
20260510030511 16 282 4.8 6.4 0.00 0.00 0.00 80
20260510030108 17 299 4.8 8.0 0.00 0.00 0.00 80
20260510025906 17 302 4.8 8.0 0.00 0.00 0.00 80
20260510025704 17 289 4.8 9.7 0.00 0.00 0.00 79
20260510025502 17 279 6.4 9.7 0.00 0.00 0.00 79
20260510025300 17 270 8.0 9.7 0.00 0.00 0.00 79
20260510025058 17 291 3.2 9.7 0.00 0.00 0.00 79
20260510024856 17 261 9.7 9.7 0.00 0.00 0.00 79
20260510024654 17 275 8.0 11.3 0.00 0.00 0.00 78
20260510024452 17 278 8.0 11.3 0.00 0.00 0.00 78
20260510024250 17 265 8.0 11.3 0.00 0.00 0.00 77
20260510024048 17 289 8.0 11.3 0.00 0.00 0.00 77
20260510023846 17 289 6.4 11.3 0.00 0.00 0.00 77
20260510023645 17 272 8.0 11.3 0.00 0.00 0.00 76
20260510023241 18 272 9.7 12.9 0.00 0.00 0.00 76
20260510023039 18 285 9.7 12.9 0.00 0.00 0.00 75
20260510022837 18 277 6.4 12.9 0.00 0.00 0.00 75
20260510022633 18 262 11.3 12.9 0.00 0.00 0.00 75
20260510022231 18 274 6.4 12.9 0.00 0.00 0.00 74
20260510022030 18 278 6.4 12.9 0.00 0.00 0.00 74
20260510021827 18 279 9.7 12.9 0.00 0.00 0.00 74
20260510021626 18 271 9.7 14.5 0.00 0.00 0.00 73
20260510021423 18 270 9.7 14.5 0.00 0.00 0.00 73
20260510021222 18 274 12.9 12.9 0.00 0.00 0.00 73
20260510021019 18 271 6.4 12.9 0.00 0.00 0.00 73
20260510020818 18 279 6.4 14.5 0.00 0.00 0.00 72
20260510020616 18 265 8.0 14.5 0.00 0.00 0.00 72
20260510020414 18 285 9.7 14.5 0.00 0.00 0.00 72
20260510020010 19 270 9.7 12.9 0.00 0.00 0.00 72
20260510015809 19 271 9.7 14.5 0.00 0.00 0.00 71
20260510015605 19 285 9.7 14.5 0.00 0.00 0.00 71
20260510015403 19 270 11.3 14.5 0.00 0.00 0.00 71
20260510015203 19 277 9.7 16.1 0.00 0.00 0.00 71
20260510014557 20 274 9.7 12.9 0.00 0.00 0.00 70
20260510013953 20 284 9.7 14.5 0.00 0.00 0.00 69
20260510013749 20 265 9.7 14.5 0.00 0.00 0.00 68
20260510013548 20 295 9.7 14.5 0.00 0.00 0.00 68
20260510013346 20 281 9.7 14.5 0.00 0.00 0.00 68
20260510012940 20 271 12.9 12.9 0.00 0.00 0.00 67
20260510012739 20 270 12.9 16.1 0.00 0.00 0.00 67
20260510012536 20 248 9.7 16.1 0.00 0.00 0.00 67
20260510012336 20 267 12.9 16.1 0.00 0.00 0.00 66
20260510012134 20 291 12.9 14.5 0.00 0.00 0.00 66
20260510011932 20 281 12.9 14.5 0.00 0.00 0.00 65
20260510011730 21 262 9.7 16.1 0.00 0.00 0.00 65
20260510011528 21 139 6.4 16.1 0.00 0.00 0.00 65
20260510011326 21 271 9.7 16.1 0.00 0.00 0.00 65
20260510010921 21 279 6.4 19.3 0.00 0.00 0.00 64
20260510010721 21 277 9.7 16.1 0.00 0.00 0.00 64
20260510010518 21 268 12.9 16.1 0.00 0.00 0.00 63
20260510010317 21 270 11.3 17.7 0.00 0.00 0.00 62
20260510010113 21 255 11.3 17.7 0.00 0.00 0.00 63
20260510005913 21 279 12.9 17.7 0.00 0.00 0.00 62
20260510005711 21 279 6.4 19.3 0.00 0.00 0.00 64
20260510005307 21 285 14.5 20.9 0.00 0.00 0.00 64
20260510005103 21 264 14.5 20.9 0.00 0.00 0.00 64
20260510004903 21 271 9.7 20.9 0.00 0.00 0.00 63
20260510004659 21 271 14.5 19.3 0.00 0.00 0.00 63
20260510004257 21 272 12.9 19.3 0.00 0.00 0.00 63
20260510004055 21 274 14.5 19.3 0.00 0.00 0.00 62
20260510003853 21 270 9.7 19.3 0.00 0.00 0.00 62
20260510003651 21 254 12.9 20.9 0.00 0.00 0.00 62
20260510003448 21 257 9.7 20.9 0.00 0.00 0.00 62
20260510003247 21 281 14.5 22.5 0.00 0.00 0.00 61
20260510003045 21 274 12.9 22.5 0.00 0.00 0.00 61
20260510002642 22 279 16.1 22.5 0.00 0.00 0.00 61
20260510002439 22 265 14.5 22.5 0.00 0.00 0.00 61
20260510002036 22 271 12.9 17.7 0.00 0.00 0.00 60
20260510001834 22 278 9.7 17.7 0.00 0.00 0.00 60
20260510001226 22 264 12.9 19.3 0.00 0.00 0.00 60
20260510001026 22 255 14.5 19.3 0.00 0.00 0.00 60
20260510000622 22 262 14.5 22.5 0.00 0.00 0.00 60
20260510000219 22 257 17.7 17.7 0.00 0.00 0.00 58
20260510000016 22 291 6.4 17.7 0.00 0.00 0.00 58
20260509235814 23 279 11.3 17.7 0.00 0.00 0.00 58
20260509235006 22 258 8.0 22.5 0.00 0.00 0.00 58
20260509234804 22 271 16.1 20.9 0.00 0.00 0.00 59
20260509234400 22 267 17.7 20.9 0.00 0.00 0.00 59
20260509234157 22 277 19.3 20.9 0.00 0.00 0.00 58
20260509233553 22 264 14.5 20.9 0.00 0.00 0.00 58
20260509233149 22 272 14.5 20.9 0.00 0.00 0.00 58
20260509232947 22 267 14.5 20.9 0.00 0.00 0.00 57
20260509232745 23 262 12.9 20.9 0.00 0.00 0.00 58
20260509232543 22 257 11.3 20.9 0.00 0.00 0.00 58
20260509232341 23 264 11.3 20.9 0.00 0.00 0.00 57
20260509232139 23 255 14.5 20.9 0.00 0.00 0.00 57
20260509231937 22 274 9.7 20.9 0.00 0.00 0.00 56
20260509231533 23 250 19.3 19.3 0.00 0.00 0.00 56
20260509231331 23 261 3.2 19.3 0.00 0.00 0.00 57
20260509231127 23 295 8.0 19.3 0.00 0.00 0.00 57
20260509230927 23 267 9.7 19.3 0.00 0.00 0.00 56